Back to catalog

FENGYUN 1C DEB

AliveSSO
NORAD 29854·DEBRIS·🇨🇳 China

Launched May 10, 1999 from Taiyuan Satellite Launch Center

Loading…

Next Passes (next 24 hours)

TLE

FreshSource: Space-Track

Epoch: Sep 13, 2026, 23:22 UTC

1 29854U 99025EY  26256.97373825  .00000154  00000-0  16317-3 0  9999
2 29854  98.9643  49.7591 0146597  29.9100  92.8687 13.83549239991496

Track FENGYUN 1C DEB in real time with AllMySat

Download on the App Store